Weather History for Roxboro, NC

Change the Weather History Date:

Thursday, June 6, 2013

  Actual Average Record
Temperature  
Mean Temperature 66 °F -  
Max Temperature 71 °F 82 °F 98 °F (2002)
Min Temperature 62 °F 57 °F 45 °F (1991)
Cooling Degree Days 2    
Growing Degree Days 16 (Base 50)    
Moisture  
Dew Point 66 °F    
Average Humidity 92    
Maximum Humidity 100    
Minimum Humidity 64    
Precipitation  
Precipitation 0.31 in - - ()
Sea Level Pressure  
Sea Level Pressure 29.95 in    
Wind  
Wind Speed 6 mph (SE)    
Max Wind Speed 10 mph    
Max Gust Speed 21 mph    
Visibility 9 miles    
Events Rain    
Averages and records for this station are not official NWS values.
T = Trace of Precipitation, MM = Missing Value Source: NWS Daily Summary

Daily Weather History Graph

Daily Weather History Graph

Search for Another Location

Airport:

Trip Planner

Search our weather history database for the weather conditions in past years. The results will help you decide how hot, cold, wet, or windy it might be!

Date:

Astronomy

Jun. 06, 2013 Rise Set
Actual Time 5:58 AM EDT 8:31 PM EDT
Civil Twilight 5:28 AM EDT 9:01 PM EDT
Nautical Twilight 4:51 AM EDT 9:38 PM EDT
Astronomical Twilight 4:09 AM EDT 10:20 PM EDT
Moon 4:35 AM EDT (6/6) 6:53 PM EDT (6/6)
Length of Visible Light 15h 33m
Length of Day
14h 32m
Waning Crescent, 4% of the Moon is Illuminated
Jun 6
Waning Crescent
Jun 8
New
Jun 16
First Quarter
Jun 23
Full
Jun 30
Last Quarter

Hourly Weather History & Observations

Time (EDT) Temp. Dew Point Humidity Pressure Visibility Wind Dir Wind Speed Gust Speed Precip Events Conditions
12:15 AM 68.0 °F 57.2 °F 68% 30.07 in 10.0 mi SE 5.8 mph - N/A   Mostly Cloudy
12:35 AM 68.0 °F 57.2 °F 68% 30.07 in 10.0 mi ESE 5.8 mph - N/A   Clear
12:55 AM 68.0 °F 55.4 °F 64% 30.06 in 10.0 mi ESE 6.9 mph - N/A   Mostly Cloudy
1:15 AM 68.0 °F 55.4 °F 64% 30.06 in 10.0 mi ESE 8.1 mph - N/A   Overcast
1:35 AM 68.0 °F 55.4 °F 64% 30.05 in 10.0 mi SE 6.9 mph - N/A   Overcast
1:55 AM 66.2 °F 55.4 °F 68% 30.05 in 10.0 mi SE 4.6 mph - N/A   Overcast
2:15 AM 66.2 °F 55.4 °F 68% 30.05 in 10.0 mi ESE 5.8 mph - N/A   Overcast
2:35 AM 64.4 °F 55.4 °F 73% 30.04 in 10.0 mi ESE 5.8 mph - N/A   Overcast
2:55 AM 64.4 °F 55.4 °F 73% 30.03 in 10.0 mi ESE 5.8 mph - N/A   Mostly Cloudy
3:15 AM 64.4 °F 57.2 °F 77% 30.03 in 10.0 mi ESE 6.9 mph - N/A   Mostly Cloudy
3:35 AM 64.4 °F 57.2 °F 77% 30.03 in 10.0 mi ESE 4.6 mph - N/A   Mostly Cloudy
3:55 AM 64.4 °F 59.0 °F 83% 30.02 in 10.0 mi ESE 4.6 mph - N/A   Overcast
4:15 AM 64.4 °F 59.0 °F 83% 30.01 in 10.0 mi ESE 4.6 mph - N/A   Overcast
4:35 AM 64.4 °F 59.0 °F 83% 30.01 in 10.0 mi ESE 4.6 mph - N/A   Overcast
4:55 AM 64.4 °F 59.0 °F 83% 30.01 in 10.0 mi ESE 3.5 mph - N/A   Overcast
5:15 AM 64.4 °F 59.0 °F 83% 30.00 in 10.0 mi SE 3.5 mph - N/A   Overcast
5:35 AM 64.4 °F 60.8 °F 88% 30.00 in 10.0 mi Calm Calm - N/A   Overcast
5:55 AM 62.6 °F 60.8 °F 94% 30.00 in 10.0 mi ESE 4.6 mph - N/A   Overcast
6:15 AM 62.6 °F 60.8 °F 94% 29.99 in 10.0 mi East 6.9 mph - N/A Rain Heavy Rain
6:35 AM 62.6 °F 62.6 °F 100% 29.99 in 10.0 mi East 3.5 mph - N/A   Overcast
6:55 AM 62.6 °F 62.6 °F 100% 29.99 in 10.0 mi ESE 3.5 mph - N/A   Overcast
7:15 AM 62.6 °F 62.6 °F 100% 30.00 in 10.0 mi East 3.5 mph - N/A   Overcast
7:35 AM 64.4 °F 62.6 °F 94% 30.00 in 10.0 mi ESE 4.6 mph - N/A   Overcast
7:55 AM 64.4 °F 62.6 °F 94% 30.00 in 10.0 mi Calm Calm - N/A   Overcast
8:15 AM 64.4 °F 62.6 °F 94% 30.00 in 10.0 mi ESE 5.8 mph - N/A   Overcast
8:35 AM 64.4 °F 64.4 °F 100% 29.99 in 10.0 mi ESE 6.9 mph - N/A   Overcast
8:55 AM 66.2 °F 64.4 °F 94% 29.99 in 10.0 mi SE 4.6 mph - N/A   Overcast
9:15 AM 68.0 °F 64.4 °F 88% 29.99 in 10.0 mi ESE 10.4 mph 17.3 mph N/A   Overcast
9:35 AM 68.0 °F 64.4 °F 88% 29.99 in 10.0 mi SSE 4.6 mph - N/A   Overcast
9:55 AM 69.8 °F 66.2 °F 88% 29.98 in 10.0 mi SE 8.1 mph - N/A   Overcast
10:15 AM 69.8 °F 66.2 °F 88% 29.98 in 10.0 mi SSE 4.6 mph 16.1 mph N/A   Overcast
10:35 AM 69.8 °F 66.2 °F 88% 29.98 in 10.0 mi SSE 5.8 mph - N/A   Overcast
10:55 AM 71.6 °F 68.0 °F 88% 29.98 in 10.0 mi SE 9.2 mph - N/A   Overcast
11:15 AM 69.8 °F 68.0 °F 94% 29.97 in 10.0 mi SE 4.6 mph - N/A   Overcast
11:35 AM 71.6 °F 68.0 °F 88% 29.97 in 10.0 mi SE 6.9 mph - N/A   Overcast
11:55 AM 71.6 °F 68.0 °F 88% 29.97 in 10.0 mi SE 8.1 mph - N/A   Overcast
12:15 PM 71.6 °F 68.0 °F 88% 29.96 in 10.0 mi SE 5.8 mph 16.1 mph N/A Rain Rain
12:35 PM 69.8 °F 69.8 °F 100% 29.96 in 5.0 mi ESE 6.9 mph - N/A   Drizzle
12:55 PM 69.8 °F 69.8 °F 100% 29.95 in 10.0 mi ESE 5.8 mph - N/A   Overcast
1:15 PM 71.6 °F 69.8 °F 94% 29.94 in 10.0 mi ESE 8.1 mph - N/A   Overcast
1:35 PM 71.6 °F 69.8 °F 94% 29.93 in 10.0 mi ESE 6.9 mph - N/A   Overcast
1:55 PM 71.6 °F 69.8 °F 94% 29.92 in 5.0 mi ESE 6.9 mph - N/A Rain Light Rain
2:15 PM 71.6 °F 69.8 °F 94% 29.92 in 4.0 mi SE 8.1 mph - N/A Rain Rain
2:35 PM 69.8 °F 69.8 °F 100% 29.91 in 7.0 mi SE 8.1 mph - 0.01 in Rain Rain
2:55 PM 71.6 °F 71.6 °F 100% 29.91 in 7.0 mi SE 8.1 mph - 0.01 in Rain Light Rain
3:15 PM 71.6 °F 71.6 °F 100% 29.90 in 5.0 mi SE 8.1 mph - N/A Rain Rain
3:35 PM 69.8 °F 69.8 °F 100% 29.89 in 7.0 mi ESE 8.1 mph - 0.02 in Rain Light Rain
3:55 PM 71.6 °F 71.6 °F 100% 29.89 in 10.0 mi SE 6.9 mph - 0.02 in   Light Drizzle
4:15 PM 71.6 °F 71.6 °F 100% 29.88 in 7.0 mi SE 5.8 mph - N/A Rain Rain
4:35 PM 71.6 °F 71.6 °F 100% 29.87 in 5.0 mi SE 4.6 mph - N/A   Overcast
4:55 PM 71.6 °F 71.6 °F 100% 29.87 in 5.0 mi SE 5.8 mph - 0.01 in Rain Rain
5:15 PM 71.6 °F 71.6 °F 100% 29.87 in 7.0 mi Calm Calm - 0.01 in Rain Light Rain
5:35 PM 71.6 °F 71.6 °F 100% 29.86 in 10.0 mi SSE 5.8 mph - 0.01 in Rain Light Rain
5:55 PM 71.6 °F 71.6 °F 100% 29.85 in 7.0 mi SSE 3.5 mph - 0.02 in Rain Light Rain
6:15 PM 71.6 °F 71.6 °F 100% 29.85 in 7.0 mi SSE 4.6 mph - 0.02 in Rain Rain
6:35 PM 71.6 °F 71.6 °F 100% 29.85 in 3.0 mi South 6.9 mph - 0.12 in Rain Rain
6:55 PM 71.6 °F 71.6 °F 100% 29.85 in 10.0 mi South 5.8 mph - 0.13 in   Overcast
7:15 PM 71.6 °F 71.6 °F 100% 29.85 in 10.0 mi South 5.8 mph - N/A   Overcast
7:35 PM 71.6 °F 71.6 °F 100% 29.85 in 10.0 mi South 5.8 mph - N/A Rain Light Rain
7:55 PM 71.6 °F 71.6 °F 100% 29.85 in 10.0 mi SW 6.9 mph - 0.01 in Rain Light Rain
8:15 PM 71.6 °F 71.6 °F 100% 29.85 in 10.0 mi SSW 6.9 mph - N/A Rain Rain
8:35 PM 71.6 °F 71.6 °F 100% 29.86 in 10.0 mi SSW 4.6 mph - 0.02 in Rain Light Rain
8:55 PM 71.6 °F 71.6 °F 100% 29.86 in 10.0 mi SSW 6.9 mph - 0.02 in   Light Drizzle
9:15 PM 71.6 °F 71.6 °F 100% 29.87 in 10.0 mi SSW 5.8 mph - N/A   Overcast
9:35 PM 69.8 °F 69.8 °F 100% 29.87 in 10.0 mi SSW 5.8 mph - N/A   Overcast
9:55 PM 69.8 °F 69.8 °F 100% 29.88 in 10.0 mi SSW 5.8 mph - N/A   Overcast
10:15 PM 69.8 °F 69.8 °F 100% 29.88 in 10.0 mi SSW 4.6 mph - N/A   Overcast
10:35 PM 69.8 °F 69.8 °F 100% 29.89 in 10.0 mi South 9.2 mph - N/A   Light Drizzle
10:55 PM 69.8 °F 69.8 °F 100% 29.89 in 10.0 mi SW 10.4 mph 20.7 mph 0.01 in Rain Rain
11:15 PM 68.0 °F 68.0 °F 100% 29.89 in 7.0 mi SSW 5.8 mph - 0.05 in Rain Rain
11:35 PM 68.0 °F 68.0 °F 100% 29.89 in 10.0 mi SSW 3.5 mph - 0.08 in Rain Light Rain
11:55 PM 68.0 °F 68.0 °F 100% 29.89 in 10.0 mi SW 3.5 mph - 0.08 in   Drizzle